Time,TemperatureF,DewpointF,PressureIn,WindDirection,WindDirectionDegrees,WindSpeedMPH,WindSpeedGustMPH,Humidity,HourlyPrecipIn,Conditions,Clouds,dailyrainin,SoftwareType,DateUTC
2013-02-25 00:07:00,28.7,26.0,29.94,WNW,290,0.0,-999.0,91,-99.99,,,0.04,weatherlink.com 1.10,2013-02-25 05:07:00,
2013-02-25 00:22:00,28.7,27.0,29.94,WNW,290,0.0,-999.0,92,-99.99,,,0.00,weatherlink.com 1.10,2013-02-25 05:22:00,
2013-02-25 00:37:00,28.7,27.0,29.95,WNW,290,0.0,-999.0,92,-99.99,,,0.00,weatherlink.com 1.10,2013-02-25 05:37:00,
2013-02-25 00:52:00,28.7,27.0,29.95,WNW,290,0.0,-999.0,92,-99.99,,,0.00,weatherlink.com 1.10,2013-02-25 05:52:00,
2013-02-25 01:07:00,28.7,27.0,29.95,WNW,290,0.0,-999.0,92,-99.99,,,0.00,weatherlink.com 1.10,2013-02-25 06:07:00,
2013-02-25 01:22:00,28.7,27.0,29.96,WNW,290,0.0,-999.0,92,-99.99,,,0.00,weatherlink.com 1.10,2013-02-25 06:22:00,
2013-02-25 01:37:00,28.8,27.0,29.96,WNW,290,0.0,-999.0,92,-99.99,,,0.00,weatherlink.com 1.10,2013-02-25 06:37:00,
2013-02-25 01:52:00,28.8,27.0,29.96,WNW,290,0.0,-999.0,92,-99.99,,,0.00,weatherlink.com 1.10,2013-02-25 06:52:00,
2013-02-25 02:07:00,28.8,27.0,29.96,WNW,290,0.0,-999.0,92,-99.99,,,0.00,weatherlink.com 1.10,2013-02-25 07:07:00,
2013-02-25 02:22:00,29.0,27.0,29.96,WNW,290,0.0,-999.0,92,-99.99,,,0.00,weatherlink.com 1.10,2013-02-25 07:22:00,
2013-02-25 02:37:00,29.0,27.0,29.97,WNW,290,0.0,-999.0,93,-99.99,,,0.00,weatherlink.com 1.10,2013-02-25 07:37:00,
2013-02-25 02:52:00,29.0,27.0,29.97,WNW,290,0.0,-999.0,93,-99.99,,,0.00,weatherlink.com 1.10,2013-02-25 07:52:00,
2013-02-25 05:56:00,29.7,28.0,30.02,WNW,290,1.0,-999.0,94,-99.99,,,0.00,weatherlink.com 1.10,2013-02-25 10:56:00,
2013-02-25 06:07:00,29.7,28.0,30.02,WNW,290,0.0,-999.0,94,-99.99,,,0.00,weatherlink.com 1.10,2013-02-25 11:07:00,
2013-02-25 06:22:00,29.8,28.0,30.03,WNW,290,0.0,-999.0,94,-99.99,,,0.00,weatherlink.com 1.10,2013-02-25 11:22:00,
2013-02-25 06:37:00,29.8,28.0,30.03,WNW,290,0.0,-999.0,94,-99.99,,,0.00,weatherlink.com 1.10,2013-02-25 11:37:00,
2013-02-25 06:52:00,29.8,28.0,30.03,WNW,290,0.0,-999.0,94,-99.99,,,0.00,weatherlink.com 1.10,2013-02-25 11:52:00,
2013-02-25 07:07:00,29.8,28.0,30.04,WNW,290,0.0,-999.0,94,-99.99,,,0.00,weatherlink.com 1.10,2013-02-25 12:07:00,
2013-02-25 07:22:00,30.0,29.0,30.04,WNW,290,0.0,-999.0,94,-99.99,,,0.00,weatherlink.com 1.10,2013-02-25 12:22:00,
2013-02-25 07:37:00,30.4,29.0,30.05,WNW,290,0.0,-999.0,94,-99.99,,,0.00,weatherlink.com 1.10,2013-02-25 12:37:00,
2013-02-25 08:07:00,31.3,30.0,30.05,WNW,290,0.0,-999.0,94,-99.99,,,0.00,weatherlink.com 1.10,2013-02-25 13:07:00,
2013-02-25 08:22:00,31.6,30.0,30.05,WNW,290,2.0,-999.0,94,-99.99,,,0.00,weatherlink.com 1.10,2013-02-25 13:22:00,
2013-02-25 08:37:00,31.6,30.0,30.06,WNW,291,2.0,-999.0,93,-99.99,,,0.00,weatherlink.com 1.10,2013-02-25 13:37:00,
2013-02-25 08:54:00,32.4,30.0,30.07,WNW,291,0.0,-999.0,92,-99.99,,,0.00,weatherlink.com 1.10,2013-02-25 13:54:00,
2013-02-25 09:07:00,32.9,30.0,30.06,WNW,291,0.0,-999.0,89,-99.99,,,0.00,weatherlink.com 1.10,2013-02-25 14:07:00,
2013-02-25 09:22:00,33.5,30.0,30.07,WNW,291,2.0,-999.0,87,-99.99,,,0.00,weatherlink.com 1.10,2013-02-25 14:22:00,
2013-02-25 09:37:00,34.0,30.0,30.07,WNW,291,0.0,-999.0,85,-99.99,,,0.01,weatherlink.com 1.10,2013-02-25 14:37:00,
2013-02-25 09:52:00,34.1,30.0,30.07,WNW,291,2.0,-999.0,84,-99.99,,,0.01,weatherlink.com 1.10,2013-02-25 14:52:00,
2013-02-25 10:07:00,34.4,30.0,30.08,WNW,291,4.0,-999.0,84,-99.99,,,0.01,weatherlink.com 1.10,2013-02-25 15:07:00,
2013-02-25 10:22:00,34.9,30.0,30.09,WNW,291,0.0,-999.0,83,-99.99,,,0.02,weatherlink.com 1.10,2013-02-25 15:22:00,
2013-02-25 10:37:00,35.5,30.0,30.09,WNW,290,0.0,-999.0,81,-99.99,,,0.03,weatherlink.com 1.10,2013-02-25 15:37:00,
2013-02-25 10:52:00,35.8,31.0,30.09,WNW,290,0.0,-999.0,81,-99.99,,,0.05,weatherlink.com 1.10,2013-02-25 15:52:00,
2013-02-25 11:07:00,35.5,31.0,30.09,WNW,292,3.0,-999.0,82,-99.99,,,0.06,weatherlink.com 1.10,2013-02-25 16:07:00,
2013-02-25 11:22:00,35.6,30.0,30.09,WNW,292,10.0,-999.0,81,-99.99,,,0.07,weatherlink.com 1.10,2013-02-25 16:22:00,
2013-02-25 11:37:00,35.8,31.0,30.09,WNW,292,6.0,-999.0,81,-99.99,,,0.08,weatherlink.com 1.10,2013-02-25 16:37:00,
2013-02-25 11:52:00,35.6,30.0,30.09,WNW,290,11.0,-999.0,79,-99.99,,,0.09,weatherlink.com 1.10,2013-02-25 16:52:00,
2013-02-25 12:07:00,36.0,30.0,30.09,WNW,292,2.0,-999.0,80,-99.99,,,0.10,weatherlink.com 1.10,2013-02-25 17:07:00,
2013-02-25 12:22:00,36.5,30.0,30.09,WNW,289,13.0,-999.0,76,-99.99,,,0.11,weatherlink.com 1.10,2013-02-25 17:22:00,
2013-02-25 12:37:00,36.2,30.0,30.10,WNW,290,3.0,-999.0,77,-99.99,,,0.12,weatherlink.com 1.10,2013-02-25 17:37:00,
2013-02-25 12:52:00,36.3,29.0,30.10,WNW,289,12.0,-999.0,75,-99.99,,,0.13,weatherlink.com 1.10,2013-02-25 17:52:00,
2013-02-25 13:08:00,36.3,28.0,30.11,WNW,290,10.0,-999.0,72,-99.99,,,0.14,weatherlink.com 1.10,2013-02-25 18:08:00,
2013-02-25 13:23:00,36.5,29.0,30.11,WNW,298,11.0,-999.0,73,-99.99,,,0.14,weatherlink.com 1.10,2013-02-25 18:23:00,
2013-02-25 13:38:00,36.6,29.0,30.11,WNW,294,13.0,-999.0,73,-99.99,,,0.15,weatherlink.com 1.10,2013-02-25 18:38:00,
2013-02-25 13:53:00,36.5,29.0,30.11,WNW,289,15.0,-999.0,73,-99.99,,,0.16,weatherlink.com 1.10,2013-02-25 18:53:00,
2013-02-25 14:08:00,36.6,29.0,30.11,WNW,293,12.0,-999.0,74,-99.99,,,0.17,weatherlink.com 1.10,2013-02-25 19:08:00,
2013-02-25 14:23:00,36.9,29.0,30.11,WNW,292,12.0,-999.0,74,-99.99,,,0.18,weatherlink.com 1.10,2013-02-25 19:23:00,
2013-02-25 14:38:00,36.5,30.0,30.12,WNW,292,12.0,-999.0,76,-99.99,,,0.19,weatherlink.com 1.10,2013-02-25 19:38:00,
2013-02-25 14:53:00,35.6,30.0,30.12,WNW,294,16.0,-999.0,79,-99.99,,,0.20,weatherlink.com 1.10,2013-02-25 19:53:00,
2013-02-25 15:08:00,34.7,29.0,30.12,WNW,301,11.0,-999.0,81,-99.99,,,0.20,weatherlink.com 1.10,2013-02-25 20:08:00,
2013-02-25 15:23:00,34.6,29.0,30.13,WNW,298,13.0,-999.0,81,-99.99,,,0.21,weatherlink.com 1.10,2013-02-25 20:23:00,
2013-02-25 15:38:00,34.4,28.0,30.13,WNW,295,14.0,-999.0,78,-99.99,,,0.21,weatherlink.com 1.10,2013-02-25 20:38:00,
2013-02-25 15:53:00,34.3,28.0,30.13,WNW,300,10.0,-999.0,77,-99.99,,,0.21,weatherlink.com 1.10,2013-02-25 20:53:00,
2013-02-25 16:08:00,34.0,28.0,30.12,WNW,297,10.0,-999.0,78,-99.99,,,0.21,weatherlink.com 1.10,2013-02-25 21:08:00,
2013-02-25 16:23:00,34.6,27.0,30.12,WNW,295,11.0,-999.0,74,-99.99,,,0.21,weatherlink.com 1.10,2013-02-25 21:23:00,
2013-02-25 16:38:00,34.4,26.0,30.12,WNW,292,9.0,-999.0,72,-99.99,,,0.21,weatherlink.com 1.10,2013-02-25 21:38:00,
2013-02-25 16:53:00,34.0,26.0,30.13,WNW,290,6.0,-999.0,71,-99.99,,,0.21,weatherlink.com 1.10,2013-02-25 21:53:00,
2013-02-25 17:08:00,33.5,25.0,30.13,WNW,300,5.0,-999.0,71,-99.99,,,0.21,weatherlink.com 1.10,2013-02-25 22:08:00,
2013-02-25 17:23:00,33.2,25.0,30.14,NW,306,4.0,-999.0,72,-99.99,,,0.21,weatherlink.com 1.10,2013-02-25 22:23:00,
2013-02-25 17:38:00,32.9,24.0,30.14,WNW,298,5.0,-999.0,71,-99.99,,,0.21,weatherlink.com 1.10,2013-02-25 22:38:00,
2013-02-25 17:53:00,32.5,24.0,30.14,WNW,298,1.0,-999.0,72,-99.99,,,0.21,weatherlink.com 1.10,2013-02-25 22:53:00,
2013-02-25 18:08:00,32.2,24.0,30.15,WNW,298,0.0,-999.0,73,-99.99,,,0.21,weatherlink.com 1.10,2013-02-25 23:08:00,
2013-02-25 18:23:00,31.0,24.0,30.16,WNW,298,0.0,-999.0,76,-99.99,,,0.21,weatherlink.com 1.10,2013-02-25 23:23:00,
2013-02-25 18:38:00,30.4,23.0,30.16,WNW,298,0.0,-999.0,75,-99.99,,,0.21,weatherlink.com 1.10,2013-02-25 23:38:00,
2013-02-25 18:53:00,30.1,23.0,30.16,WNW,298,0.0,-999.0,76,-99.99,,,0.21,weatherlink.com 1.10,2013-02-25 23:53:00,
2013-02-25 19:08:00,29.8,23.0,30.16,WNW,298,0.0,-999.0,77,-99.99,,,0.21,weatherlink.com 1.10,2013-02-26 00:08:00,
2013-02-25 19:23:00,29.4,23.0,30.16,WNW,298,0.0,-999.0,78,-99.99,,,0.21,weatherlink.com 1.10,2013-02-26 00:23:00,
2013-02-25 19:38:00,27.8,23.0,30.17,WNW,298,0.0,-999.0,81,-99.99,,,0.21,weatherlink.com 1.10,2013-02-26 00:38:00,
2013-02-25 19:53:00,27.2,22.0,30.17,WNW,298,0.0,-999.0,82,-99.99,,,0.21,weatherlink.com 1.10,2013-02-26 00:53:00,
2013-02-25 20:08:00,26.6,22.0,30.17,WNW,298,0.0,-999.0,84,-99.99,,,0.21,weatherlink.com 1.10,2013-02-26 01:08:00,
2013-02-25 20:23:00,26.6,23.0,30.18,WNW,298,0.0,-999.0,86,-99.99,,,0.21,weatherlink.com 1.10,2013-02-26 01:23:00,
2013-02-25 20:38:00,26.9,23.0,30.18,WNW,298,0.0,-999.0,86,-99.99,,,0.21,weatherlink.com 1.10,2013-02-26 01:38:00,
2013-02-25 20:53:00,26.7,23.0,30.18,WNW,298,0.0,-999.0,86,-99.99,,,0.21,weatherlink.com 1.10,2013-02-26 01:53:00,
2013-02-25 21:08:00,26.1,23.0,30.17,WNW,298,0.0,-999.0,86,-99.99,,,0.21,weatherlink.com 1.10,2013-02-26 02:08:00,
2013-02-25 21:23:00,25.3,22.0,30.17,WNW,298,0.0,-999.0,86,-99.99,,,0.21,weatherlink.com 1.10,2013-02-26 02:23:00,
2013-02-25 21:38:00,24.5,21.0,30.17,WNW,298,0.0,-999.0,87,-99.99,,,0.21,weatherlink.com 1.10,2013-02-26 02:38:00,
2013-02-25 21:53:00,23.6,21.0,30.18,WNW,298,0.0,-999.0,88,-99.99,,,0.21,weatherlink.com 1.10,2013-02-26 02:53:00,
2013-02-25 22:08:00,23.0,20.0,30.18,WNW,298,0.0,-999.0,89,-99.99,,,0.21,weatherlink.com 1.10,2013-02-26 03:08:00,
2013-02-25 22:23:00,22.9,20.0,30.18,WNW,298,0.0,-999.0,89,-99.99,,,0.21,weatherlink.com 1.10,2013-02-26 03:23:00,
2013-02-25 22:38:00,22.7,20.0,30.19,WNW,298,0.0,-999.0,90,-99.99,,,0.21,weatherlink.com 1.10,2013-02-26 03:38:00,
2013-02-25 22:53:00,22.2,20.0,30.20,WNW,298,0.0,-999.0,90,-99.99,,,0.21,weatherlink.com 1.10,2013-02-26 03:53:00,
2013-02-25 23:08:00,22.1,20.0,30.19,WNW,298,0.0,-999.0,91,-99.99,,,0.21,weatherlink.com 1.10,2013-02-26 04:08:00,
2013-02-25 23:23:00,22.1,20.0,30.19,WNW,298,0.0,-999.0,91,-99.99,,,0.21,weatherlink.com 1.10,2013-02-26 04:23:00,
2013-02-25 23:38:00,22.1,20.0,30.19,WNW,298,0.0,-999.0,91,-99.99,,,0.21,weatherlink.com 1.10,2013-02-26 04:38:00,
2013-02-25 23:53:00,21.0,19.0,30.18,WNW,298,0.0,-999.0,91,-99.99,,,0.21,weatherlink.com 1.10,2013-02-26 04:53:00,